This demonstration page uses our WeatherBlox Daily Observations layout. Learn more.

Left ArrowRight Arrow

39.08367, -84.50855

Hourly Observations for January 10, 2015

Temp ( °F °C ) Dew Point ( °F °C ) Humidity (%) Winds ( mph kmh ) Pressure ( in mb ) Visibility ( mi km ) Precip ( " mm )
12:53 am 00:53 Clear 8 -13.3 -4 -20 57 57 NW 9 15 30.59 1036 10 16.0934 0 0
1:53 am 01:53 Clear 7 -13.9 -4 -20 60 60 W 5 7 30.6 1036 10 16.0934 0 0
2:53 am 02:53 Clear 6 -14.4 -4 -20 63 63 WNW 3 6 30.61 1037 10 16.0934 0 0
3:53 am 03:53 Clear 6 -14.4 -5 -20.6 60 60 Calm 30.62 1037 10 16.0934 0 0
4:53 am 04:53 Clear 3 -16.1 -4 -20 72 72 SSW 3 6 30.62 1037 10 16.0934 0 0
5:53 am 05:53 Clear 3 -16.1 -3 -19.4 76 76 S 6 9 30.61 1037 10 16.0934 0 0
6:53 am 06:53 Clear 2 -16.7 -3 -19.4 80 80 Calm 30.62 1037 10 16.0934 0 0
7:53 am 07:53 Clear 2 -16.7 -2 -18.9 83 83 S 3 6 30.64 1038 10 16.0934 0 0
8:53 am 08:53 Sunny 6 -14.4 0 -17.8 76 76 S 5 7 30.65 1038 10 16.0934 0 0
9:53 am 09:53 Sunny 9 -12.8 -1 -18.3 64 64 SW 8 13 30.66 1038 10 16.0934 0 0
10:53 am 10:53 Sunny 12 -11.1 0 -17.8 58 58 VRB 6 9 30.65 1038 10 16.0934 0 0
11:53 am 11:53 Sunny 16 -8.9 -1 -18.3 47 47 S 5 7 30.63 1037 10 16.0934 0 0
12:53 pm 12:53 Sunny 19 -7.2 -2 -18.9 39 39 S 12 19 30.59 1036 10 16.0934 0 0
1:53 pm 13:53 Sunny 22 -5.6 -3 -19.4 33 33 S 9 15 30.56 1035 10 16.0934 0 0
2:53 pm 14:53 Sunny 24 -4.4 -1 -18.3 33 33 SW 12 19 30.54 1034 10 16.0934 0 0
3:53 pm 15:53 Sunny 25 -3.9 -1 -18.3 32 32 SSW 6 9 30.52 1034 10 16.0934 0 0
4:53 pm 16:53 Sunny 24 -4.4 -1 -18.3 33 33 SW 6 9 30.53 1034 10 16.0934 0 0
5:53 pm 17:53 Clear 20 -6.7 0 -17.8 41 41 S 6 9 30.53 1034 10 16.0934 0 0
6:53 pm 18:53 Clear 18 -7.8 5 -15 57 57 Calm 30.54 1034 10 16.0934 0 0
7:53 pm 19:53 Clear 19 -7.2 3 -16.1 49 49 SW 3 6 30.54 1034 10 16.0934 0 0
8:53 pm 20:53 Clear 16 -8.9 6 -14.4 65 65 SSW 3 6 30.54 1034 10 16.0934 0 0
9:53 pm 21:53 Clear 16 -8.9 7 -13.9 67 67 Calm 30.52 1034 10 16.0934 0 0
10:53 pm 22:53 Clear 17 -8.3 9 -12.8 70 70 Calm 30.52 1034 10 16.0934 0 0
11:53 pm 23:53 Clear 14 -10 8 -13.3 77 77 Calm 30.51 1033 10 16.0934 0 0

Powered by AerisWeather